Вернуться в каталог

COSMOS 970 DEB

АктивенLEO
NORAD 12864·DEBRIS·🇷🇺 Russia

Запущен Dec 21, 1977 с Baikonur Cosmodrome

Loading…

Ближайшие Пролёты (ближайшие 24 часа)

TLE

СвежийSource: Space-Track

Эпоха: Sep 14, 2026, 07:07 UTC

1 12864U 77121AS  26257.29694380  .00000763  00000-0  60702-3 0  9996
2 12864  65.8327   4.5533 0100347 295.9449  93.5345 13.94642782330833

Отслеживайте COSMOS 970 DEB в реальном времени с AllMySat

Download on the App Store